| time (UTC) | temp C | wind direction | speed KPH | gust KPH | rain 1hr cm | rain 24hr cm | rain mn cm | humidity % | barometer mb |
| 20260505034638 | 15 | 199 | 3.2 | 9.7 | 0.00 | 0.00 | 0.00 | 43 | 1007.4 |
| 20260505033625 | 16 | 80 | 0.0 | 0.0 | 0.00 | 0.00 | 0.00 | 43 | 1007.1 |
| 20260505032620 | 16 | 80 | 0.0 | 4.8 | 0.00 | 0.00 | 0.00 | 42 | 1006.9 |
| 20260505031630 | 16 | 80 | 1.6 | 3.2 | 0.00 | 0.00 | 0.00 | 41 | 1006.8 |
| 20260505030617 | 17 | 80 | 0.0 | 1.6 | 0.00 | 0.00 | 0.00 | 39 | 1006.7 |
| 20260505025618 | 18 | 80 | 1.6 | 3.2 | 0.00 | 0.00 | 0.00 | 37 | 1006.5 |
| 20260505024613 | 18 | 346 | 0.0 | 3.2 | 0.00 | 0.00 | 0.00 | 35 | 1006.3 |
| 20260505023621 | 19 | 232 | 0.0 | 1.6 | 0.00 | 0.00 | 0.00 | 32 | 1006.3 |
| 20260505022612 | 20 | 205 | 1.6 | 3.2 | 0.00 | 0.00 | 0.00 | 31 | 1006.3 |
| 20260505021622 | 20 | 233 | 1.6 | 4.8 | 0.00 | 0.00 | 0.00 | 30 | 1006.2 |
| 20260505020617 | 20 | 187 | 0.0 | 8.0 | 0.00 | 0.00 | 0.00 | 29 | 1006.2 |
| 20260505015617 | 21 | 288 | 3.2 | 8.0 | 0.00 | 0.00 | 0.00 | 28 | 1006.1 |
| 20260505014627 | 21 | 193 | 3.2 | 11.3 | 0.00 | 0.00 | 0.00 | 28 | 1006.1 |
| 20260505013636 | 21 | 229 | 4.8 | 12.9 | 0.00 | 0.00 | 0.00 | 27 | 1006.0 |
| 20260505012627 | 21 | 210 | 6.4 | 12.9 | 0.00 | 0.00 | 0.00 | 27 | 1006.0 |
| 20260505011615 | 21 | 202 | 6.4 | 12.9 | 0.00 | 0.00 | 0.00 | 28 | 1006.1 |
| 20260505010624 | 21 | 212 | 6.4 | 12.9 | 0.00 | 0.00 | 0.00 | 27 | 1006.2 |
| 20260505005622 | 22 | 240 | 6.4 | 17.7 | 0.00 | 0.00 | 0.00 | 27 | 1006.2 |
| 20260505004633 | 21 | 202 | 6.4 | 14.5 | 0.00 | 0.00 | 0.00 | 26 | 1006.2 |
| 20260505003620 | 21 | 219 | 8.0 | 14.5 | 0.00 | 0.00 | 0.00 | 26 | 1006.4 |
| 20260505002628 | 21 | 248 | 8.0 | 19.3 | 0.00 | 0.00 | 0.00 | 27 | 1006.6 |
| 20260505001617 | 22 | 240 | 9.7 | 14.5 | 0.00 | 0.00 | 0.00 | 27 | 1006.6 |
| 20260505000612 | 21 | 227 | 9.7 | 19.3 | 0.00 | 0.00 | 0.00 | 27 | 1006.8 |
| 20260504235646 | 22 | 245 | 8.0 | 22.5 | 0.00 | 0.00 | 0.00 | 27 | 1006.8 |
| 20260504234614 | 22 | 242 | 4.8 | 17.7 | 0.00 | 0.00 | 0.00 | 25 | 1006.7 |
| 20260504233623 | 22 | 227 | 9.7 | 16.1 | 0.00 | 0.00 | 0.00 | 26 | 1006.8 |
| 20260504232635 | 22 | 213 | 6.4 | 16.1 | 0.00 | 0.00 | 0.00 | 26 | 1006.8 |
| 20260504231640 | 22 | 236 | 8.0 | 20.9 | 0.00 | 0.00 | 0.00 | 27 | 1006.8 |
| 20260504230627 | 21 | 247 | 9.7 | 20.9 | 0.00 | 0.00 | 0.00 | 29 | 1006.8 |
| 20260504225628 | 21 | 248 | 11.3 | 24.1 | 0.00 | 0.00 | 0.00 | 28 | 1006.8 |
| 20260504224616 | 22 | 240 | 16.1 | 24.1 | 0.00 | 0.00 | 0.00 | 27 | 1006.8 |
| 20260504223630 | 22 | 240 | 16.1 | 29.0 | 0.00 | 0.00 | 0.00 | 27 | 1006.7 |
| 20260504222620 | 23 | 242 | 8.0 | 17.7 | 0.00 | 0.00 | 0.00 | 21 | 1006.6 |
| 20260504221628 | 23 | 309 | 11.3 | 17.7 | 0.00 | 0.00 | 0.00 | 22 | 1006.6 |
| 20260504220627 | 23 | 284 | 9.7 | 20.9 | 0.00 | 0.00 | 0.00 | 20 | 1006.7 |
| 20260504215612 | 23 | 325 | 4.8 | 17.7 | 0.00 | 0.00 | 0.00 | 20 | 1006.8 |
| 20260504214640 | 23 | 182 | 1.6 | 12.9 | 0.00 | 0.00 | 0.00 | 21 | 1007.0 |
| 20260504213628 | 23 | 341 | 8.0 | 16.1 | 0.00 | 0.00 | 0.00 | 20 | 1007.1 |
| 20260504212624 | 23 | 355 | 6.4 | 17.7 | 0.00 | 0.00 | 0.00 | 20 | 1007.3 |
| 20260504211615 | 23 | 346 | 4.8 | 12.9 | 0.00 | 0.00 | 0.00 | 20 | 1007.5 |
| 20260504210641 | 22 | 269 | 4.8 | 14.5 | 0.00 | 0.00 | 0.00 | 20 | 1007.6 |
| 20260504205619 | 22 | 236 | 8.0 | 14.5 | 0.00 | 0.00 | 0.00 | 21 | 1007.7 |
| 20260504204627 | 22 | 294 | 8.0 | 17.7 | 0.00 | 0.00 | 0.00 | 24 | 1007.7 |
| 20260504203620 | 22 | 116 | 3.2 | 16.1 | 0.00 | 0.00 | 0.00 | 25 | 1007.8 |
| 20260504202628 | 22 | 327 | 9.7 | 17.7 | 0.00 | 0.00 | 0.00 | 26 | 1007.8 |
| 20260504201638 | 22 | 346 | 14.5 | 22.5 | 0.00 | 0.00 | 0.00 | 26 | 1007.9 |
| 20260504200625 | 22 | 26 | 6.4 | 17.7 | 0.00 | 0.00 | 0.00 | 27 | 1007.9 |
| 20260504195629 | 22 | 271 | 11.3 | 25.7 | 0.00 | 0.00 | 0.00 | 27 | 1008.0 |
| 20260504194638 | 22 | 305 | 3.2 | 16.1 | 0.00 | 0.00 | 0.00 | 27 | 1008.1 |
| 20260504193625 | 22 | 292 | 4.8 | 14.5 | 0.00 | 0.00 | 0.00 | 27 | 1008.3 |
| 20260504192613 | 22 | 271 | 4.8 | 12.9 | 0.00 | 0.00 | 0.00 | 26 | 1008.5 |
| 20260504191642 | 22 | 163 | 4.8 | 12.9 | 0.00 | 0.00 | 0.00 | 26 | 1008.5 |
| 20260504190633 | 21 | 321 | 3.2 | 14.5 | 0.00 | 0.00 | 0.00 | 27 | 1008.8 |
| 20260504185613 | 21 | 266 | 9.7 | 14.5 | 0.00 | 0.00 | 0.00 | 27 | 1008.9 |
| 20260504184641 | 21 | 160 | 4.8 | 14.5 | 0.00 | 0.00 | 0.00 | 28 | 1009.0 |
| 20260504183629 | 21 | 250 | 8.0 | 14.5 | 0.00 | 0.00 | 0.00 | 27 | 1009.0 |
| 20260504182620 | 21 | 104 | 4.8 | 12.9 | 0.00 | 0.00 | 0.00 | 28 | 1009.1 |
| 20260504181633 | 21 | 190 | 6.4 | 11.3 | 0.00 | 0.00 | 0.00 | 29 | 1009.4 |
| 20260504180625 | 21 | 288 | 8.0 | 16.1 | 0.00 | 0.00 | 0.00 | 29 | 1009.5 |
| 20260504175646 | 21 | 165 | 4.8 | 11.3 | 0.00 | 0.00 | 0.00 | 28 | 1009.6 |
| 20260504174614 | 21 | 229 | 4.8 | 14.5 | 0.00 | 0.00 | 0.00 | 31 | 1009.6 |
| 20260504173626 | 21 | 248 | 4.8 | 12.9 | 0.00 | 0.00 | 0.00 | 29 | 1009.7 |
| 20260504172615 | 20 | 142 | 4.8 | 9.7 | 0.00 | 0.00 | 0.00 | 31 | 1009.8 |
| 20260504171626 | 20 | 164 | 6.4 | 16.1 | 0.00 | 0.00 | 0.00 | 32 | 1009.8 |
| 20260504170637 | 20 | 183 | 8.0 | 14.5 | 0.00 | 0.00 | 0.00 | 33 | 1009.9 |
| 20260504150631 | 15 | 36 | 3.2 | 8.0 | 0.00 | 0.00 | 0.00 | 36 | 1010.3 |
| 20260504140622 | 11 | 61 | 0.0 | 3.2 | 0.00 | 0.00 | 0.00 | 49 | 1010.4 |
| 20260504130622 | 8 | 142 | 0.0 | 9.7 | 0.00 | 0.00 | 0.00 | 49 | 1010.5 |
| 20260504110626 | 10 | 186 | 0.0 | 4.8 | 0.00 | 0.00 | 0.00 | 46 | 1010.5 |
| 20260504081630 | 15 | 302 | 8.0 | 25.7 | 0.00 | 0.00 | 0.00 | 26 | 1009.0 |
| 20260504080619 | 15 | 80 | 6.4 | 20.9 | 0.00 | 0.00 | 0.00 | 27 | 1009.0 |
| 20260504050642 | 13 | 133 | 1.6 | 9.7 | 0.00 | 0.00 | 0.00 | 33 | 1009.9 |
| 20260504045642 | 13 | 159 | 0.0 | 4.8 | 0.00 | 0.00 | 0.00 | 36 | 1010.0 |
| 20260504044629 | 13 | 159 | 1.6 | 3.2 | 0.00 | 0.00 | 0.00 | 35 | 1010.0 |
| 20260504043616 | 14 | 159 | 1.6 | 4.8 | 0.00 | 0.00 | 0.00 | 36 | 1010.0 |
| 20260504042625 | 14 | 335 | 1.6 | 3.2 | 0.00 | 0.00 | 0.00 | 34 | 1010.1 |
| 20260504041619 | 15 | 334 | 1.6 | 3.2 | 0.00 | 0.00 | 0.00 | 32 | 1010.1 |
| 20260504040610 | 15 | 334 | 0.0 | 3.2 | 0.00 | 0.00 | 0.00 | 35 | 1010.1 |
| 20260504035628 | 15 | 334 | 1.6 | 4.8 | 0.00 | 0.00 | 0.00 | 35 | 1010.2 |